Time,TemperatureF,DewpointF,PressureIn,WindDirection,WindDirectionDegrees,WindSpeedMPH,WindSpeedGustMPH,Humidity,HourlyPrecipIn,Conditions,Clouds,dailyrainin,SoftwareType,DateUTC
2013-05-21 00:03:00,52.9,30.4,29.91,NNW,333,0.0,0.0,42,0.00,,,0.00,WeatherTracker,2013-05-21 07:03:00,
2013-05-21 00:08:00,52.6,30.2,29.91,NNW,333,0.0,0.0,42,0.00,,,0.00,WeatherTracker,2013-05-21 07:08:00,
2013-05-21 00:13:00,52.7,29.7,29.91,NNW,333,0.0,0.0,41,0.00,,,0.00,WeatherTracker,2013-05-21 07:13:00,
2013-05-21 00:18:00,54.1,30.3,29.91,NNW,333,0.0,0.0,40,0.00,,,0.00,WeatherTracker,2013-05-21 07:18:00,
2013-05-21 00:23:00,53.0,29.9,29.91,NNW,333,0.0,0.0,41,0.00,,,0.00,WeatherTracker,2013-05-21 07:23:00,
2013-05-21 00:28:00,53.2,29.5,29.91,NNW,333,0.0,0.0,40,0.00,,,0.00,WeatherTracker,2013-05-21 07:28:00,
2013-05-21 00:33:00,53.9,28.9,29.91,NNW,334,0.0,0.0,38,0.00,,,0.00,WeatherTracker,2013-05-21 07:33:00,
2013-05-21 00:38:00,53.3,29.6,29.90,NNW,334,0.0,0.0,40,0.00,,,0.00,WeatherTracker,2013-05-21 07:38:00,
2013-05-21 00:43:00,52.7,29.7,29.90,NNW,334,0.0,0.0,41,0.00,,,0.00,WeatherTracker,2013-05-21 07:43:00,
2013-05-21 00:48:00,52.6,30.2,29.90,NNW,333,0.0,0.0,42,0.00,,,0.00,WeatherTracker,2013-05-21 07:48:00,
2013-05-21 00:53:00,52.2,30.4,29.90,NNW,333,0.0,0.0,43,0.00,,,0.00,WeatherTracker,2013-05-21 07:53:00,
2013-05-21 00:58:00,52.2,30.4,29.90,NNW,330,0.0,0.0,43,0.00,,,0.00,WeatherTracker,2013-05-21 07:58:00,
2013-05-21 01:03:00,51.2,30.6,29.90,NNW,329,0.0,0.0,45,0.00,,,0.00,WeatherTracker,2013-05-21 08:03:00,
2013-05-21 01:08:00,51.9,30.7,29.89,NNW,329,0.0,0.0,44,0.00,,,0.00,WeatherTracker,2013-05-21 08:08:00,
2013-05-21 01:13:00,51.4,30.8,29.89,NNW,329,0.0,0.0,45,0.00,,,0.00,WeatherTracker,2013-05-21 08:13:00,
2013-05-21 01:18:00,51.6,31.0,29.89,NNW,329,0.0,0.0,45,0.00,,,0.00,WeatherTracker,2013-05-21 08:18:00,
2013-05-21 01:24:00,51.9,30.7,29.89,NNW,329,0.0,0.0,44,0.00,,,0.00,WeatherTracker,2013-05-21 08:24:00,
2013-05-21 01:29:00,51.6,29.8,29.89,NNW,329,0.0,0.0,43,0.00,,,0.00,WeatherTracker,2013-05-21 08:29:00,
2013-05-21 01:34:00,50.5,28.8,29.88,NNW,329,0.0,0.0,43,0.00,,,0.00,WeatherTracker,2013-05-21 08:34:00,
2013-05-21 01:39:00,51.9,30.1,29.88,NNW,329,0.0,0.0,43,0.00,,,0.00,WeatherTracker,2013-05-21 08:39:00,
2013-05-21 01:44:00,53.3,30.8,29.88,NNW,329,0.0,0.0,42,0.00,,,0.00,WeatherTracker,2013-05-21 08:44:00,
2013-05-21 01:49:00,51.8,28.9,29.88,NNW,331,0.0,1.0,41,0.00,,,0.00,WeatherTracker,2013-05-21 08:49:00,
2013-05-21 01:54:00,50.8,29.7,29.88,NNW,330,0.0,1.0,44,0.00,,,0.00,WeatherTracker,2013-05-21 08:54:00,
2013-05-21 01:59:00,50.3,29.8,29.87,NNW,331,0.0,1.0,45,0.00,,,0.00,WeatherTracker,2013-05-21 08:59:00,
2013-05-21 02:04:00,50.3,29.8,29.87,NNW,331,0.0,0.0,45,0.00,,,0.00,WeatherTracker,2013-05-21 09:04:00,
2013-05-21 02:09:00,50.8,28.0,29.87,North,351,0.0,0.0,41,0.00,,,0.00,WeatherTracker,2013-05-21 09:09:00,
2013-05-21 02:14:00,50.8,27.4,29.87,WNW,293,0.0,1.0,40,0.00,,,0.00,WeatherTracker,2013-05-21 09:14:00,
2013-05-21 02:19:00,48.9,30.1,29.86,SW,229,0.0,1.0,48,0.00,,,0.00,WeatherTracker,2013-05-21 09:19:00,
2013-05-21 02:24:00,48.5,28.7,29.86,SW,234,0.0,1.0,46,0.00,,,0.00,WeatherTracker,2013-05-21 09:24:00,
2013-05-21 02:29:00,49.4,27.3,29.86,SW,234,0.0,0.0,42,0.00,,,0.00,WeatherTracker,2013-05-21 09:29:00,
2013-05-21 02:34:00,50.4,29.9,29.86,SSW,196,0.0,0.0,45,0.00,,,0.00,WeatherTracker,2013-05-21 09:34:00,
2013-05-21 02:39:00,49.2,28.8,29.86,SSW,197,0.0,0.0,45,0.00,,,0.00,WeatherTracker,2013-05-21 09:39:00,
2013-05-21 02:44:00,48.9,28.0,29.86,SSW,196,0.0,0.0,44,0.00,,,0.00,WeatherTracker,2013-05-21 09:44:00,
2013-05-21 02:49:00,49.8,27.6,29.86,SSW,198,0.0,0.0,42,0.00,,,0.00,WeatherTracker,2013-05-21 09:49:00,
2013-05-21 02:54:00,50.0,29.0,29.86,SSW,198,0.0,0.0,44,0.00,,,0.00,WeatherTracker,2013-05-21 09:54:00,
2013-05-21 02:59:00,50.5,28.3,29.85,SSW,198,0.0,0.0,42,0.00,,,0.00,WeatherTracker,2013-05-21 09:59:00,
2013-05-21 03:04:00,50.6,28.4,29.85,SSW,198,0.0,0.0,42,0.00,,,0.00,WeatherTracker,2013-05-21 10:04:00,
2013-05-21 03:09:00,50.0,28.4,29.85,SSW,198,0.0,0.0,43,0.00,,,0.00,WeatherTracker,2013-05-21 10:09:00,
2013-05-21 03:14:00,51.2,30.0,29.84,SSW,196,0.0,0.0,44,0.00,,,0.00,WeatherTracker,2013-05-21 10:14:00,
2013-05-21 03:19:00,50.9,29.8,29.84,SSW,196,0.0,0.0,44,0.00,,,0.00,WeatherTracker,2013-05-21 10:19:00,
2013-05-21 03:24:00,50.8,29.7,29.84,SSW,196,0.0,0.0,44,0.00,,,0.00,WeatherTracker,2013-05-21 10:24:00,
2013-05-21 03:30:00,49.6,29.1,29.84,SW,222,0.0,0.0,45,0.00,,,0.00,WeatherTracker,2013-05-21 10:30:00,
2013-05-21 03:35:00,48.4,29.6,29.84,WSW,248,0.0,0.0,48,0.00,,,0.00,WeatherTracker,2013-05-21 10:35:00,
2013-05-21 03:40:00,48.7,29.9,29.84,NW,316,0.0,0.0,48,0.00,,,0.00,WeatherTracker,2013-05-21 10:40:00,
2013-05-21 03:45:00,48.4,30.1,29.83,NW,315,0.0,0.0,49,0.00,,,0.00,WeatherTracker,2013-05-21 10:45:00,
2013-05-21 03:50:00,48.8,30.0,29.83,NW,323,0.0,0.0,48,0.00,,,0.00,WeatherTracker,2013-05-21 10:50:00,
2013-05-21 03:55:00,49.7,30.3,29.83,NNW,330,0.0,0.0,47,0.00,,,0.00,WeatherTracker,2013-05-21 10:55:00,
2013-05-21 04:00:00,49.8,30.9,29.83,WSW,253,0.0,1.0,48,0.00,,,0.00,WeatherTracker,2013-05-21 11:00:00,
2013-05-21 04:05:00,49.8,30.9,29.83,North,-999,0.0,1.0,48,0.00,,,0.00,WeatherTracker,2013-05-21 11:05:00,
2013-05-21 04:10:00,42.9,24.6,29.82,WSW,237,1.0,5.0,48,0.00,,,0.00,WeatherTracker,2013-05-21 11:10:00,
2013-05-21 04:15:00,42.9,32.0,29.82,North,360,0.0,5.0,65,0.00,,,0.00,WeatherTracker,2013-05-21 11:15:00,
2013-05-21 04:20:00,42.8,30.7,29.82,SSW,207,1.0,5.0,62,0.00,,,0.00,WeatherTracker,2013-05-21 11:20:00,
2013-05-21 04:25:00,43.3,33.1,29.82,West,277,5.0,5.0,67,0.00,,,0.00,WeatherTracker,2013-05-21 11:25:00,
2013-05-21 04:30:00,43.3,31.2,29.82,SSE,148,1.0,14.0,62,0.00,,,0.00,WeatherTracker,2013-05-21 11:30:00,
2013-05-21 04:35:00,44.6,32.0,29.81,SSE,153,0.0,14.0,61,0.00,,,0.00,WeatherTracker,2013-05-21 11:35:00,
2013-05-21 04:40:00,44.9,31.5,29.82,WSW,239,6.0,7.0,59,0.00,,,0.00,WeatherTracker,2013-05-21 11:40:00,
2013-05-21 04:45:00,47.9,32.5,29.81,WSW,240,3.0,7.0,55,0.00,,,0.00,WeatherTracker,2013-05-21 11:45:00,
2013-05-21 04:50:00,48.2,32.8,29.81,WSW,240,0.0,6.0,55,0.00,,,0.00,WeatherTracker,2013-05-21 11:50:00,
2013-05-21 04:55:00,46.9,33.3,29.81,North,360,1.0,5.0,59,0.00,,,0.00,WeatherTracker,2013-05-21 11:55:00,
2013-05-21 05:00:00,45.1,32.1,29.81,WSW,239,2.0,4.0,60,0.00,,,0.00,WeatherTracker,2013-05-21 12:00:00,
2013-05-21 05:05:00,46.6,30.4,29.81,WSW,241,0.0,4.0,53,0.00,,,0.00,WeatherTracker,2013-05-21 12:05:00,
2013-05-21 05:10:00,46.5,31.2,29.80,North,360,5.0,5.0,55,0.00,,,0.00,WeatherTracker,2013-05-21 12:10:00,
2013-05-21 05:15:00,46.8,32.4,29.80,ENE,69,3.0,7.0,57,0.00,,,0.00,WeatherTracker,2013-05-21 12:15:00,
2013-05-21 05:20:00,46.9,32.0,29.80,WNW,300,8.0,8.0,56,0.00,,,0.00,WeatherTracker,2013-05-21 12:20:00,
2013-05-21 05:25:00,47.9,32.5,29.80,NE,37,2.0,9.0,55,0.00,,,0.00,WeatherTracker,2013-05-21 12:25:00,
2013-05-21 05:30:00,47.9,32.5,29.80,North,9,9.0,9.0,55,0.00,,,0.00,WeatherTracker,2013-05-21 12:30:00,
2013-05-21 05:35:00,47.5,32.1,29.79,NNW,337,0.0,9.0,55,0.00,,,0.00,WeatherTracker,2013-05-21 12:35:00,
2013-05-21 05:40:00,47.2,31.4,29.79,NNE,26,5.0,9.0,54,0.00,,,0.00,WeatherTracker,2013-05-21 12:40:00,
2013-05-21 05:45:00,48.0,31.7,29.79,NNE,32,0.0,8.0,53,0.00,,,0.00,WeatherTracker,2013-05-21 12:45:00,
2013-05-21 05:51:00,48.7,31.9,29.79,West,278,4.0,8.0,52,0.00,,,0.00,WeatherTracker,2013-05-21 12:51:00,
2013-05-21 05:56:00,48.5,32.2,29.79,NNE,28,6.0,6.0,53,0.00,,,0.00,WeatherTracker,2013-05-21 12:56:00,
2013-05-21 06:01:00,49.3,30.4,29.79,North,350,5.0,12.0,48,0.00,,,0.00,WeatherTracker,2013-05-21 13:01:00,
2013-05-21 06:06:00,50.0,28.4,29.78,North,351,4.0,12.0,43,0.00,,,0.00,WeatherTracker,2013-05-21 13:06:00,
2013-05-21 06:11:00,51.2,30.0,29.79,North,351,1.0,7.0,44,0.00,,,0.00,WeatherTracker,2013-05-21 13:11:00,
2013-05-21 06:16:00,51.5,29.8,29.79,NW,316,2.0,7.0,43,0.00,,,0.00,WeatherTracker,2013-05-21 13:16:00,
2013-05-21 06:21:00,52.1,28.5,29.79,ENE,59,1.0,7.0,40,0.00,,,0.00,WeatherTracker,2013-05-21 13:21:00,
2013-05-21 06:26:00,53.1,28.2,29.78,North,360,2.0,9.0,38,0.00,,,0.00,WeatherTracker,2013-05-21 13:26:00,
2013-05-21 06:31:00,53.9,29.5,29.78,WSW,244,3.0,9.0,39,0.00,,,0.00,WeatherTracker,2013-05-21 13:31:00,
2013-05-21 06:36:00,53.6,28.0,29.78,North,360,9.0,9.0,37,0.00,,,0.00,WeatherTracker,2013-05-21 13:36:00,
2013-05-21 06:41:00,56.8,26.5,29.78,WSW,257,2.0,13.0,31,0.00,,,0.00,WeatherTracker,2013-05-21 13:41:00,
2013-05-21 06:46:00,57.8,26.6,29.77,SW,227,4.0,13.0,30,0.00,,,0.00,WeatherTracker,2013-05-21 13:46:00,
2013-05-21 06:51:00,58.5,30.2,29.78,SSW,212,2.0,13.0,34,0.00,,,0.00,WeatherTracker,2013-05-21 13:51:00,
2013-05-21 06:56:00,57.9,29.7,29.77,SSW,212,1.0,11.0,34,0.00,,,0.00,WeatherTracker,2013-05-21 13:56:00,
2013-05-21 07:01:00,57.2,29.8,29.78,SSW,211,0.0,7.0,35,0.00,,,0.00,WeatherTracker,2013-05-21 14:01:00,
2013-05-21 07:06:00,57.6,29.4,29.78,SW,232,0.0,7.0,34,0.00,,,0.00,WeatherTracker,2013-05-21 14:06:00,
2013-05-21 07:11:00,58.6,28.1,29.78,North,360,0.0,6.0,31,0.00,,,0.00,WeatherTracker,2013-05-21 14:11:00,
2013-05-21 07:16:00,59.4,30.3,29.78,NNW,333,4.0,6.0,33,0.00,,,0.00,WeatherTracker,2013-05-21 14:16:00,
2013-05-21 07:21:00,60.2,33.1,29.78,North,360,3.0,5.0,36,0.00,,,0.00,WeatherTracker,2013-05-21 14:21:00,
2013-05-21 07:26:00,61.2,27.8,29.77,NE,49,0.0,7.0,28,0.00,,,0.00,WeatherTracker,2013-05-21 14:26:00,
2013-05-21 07:31:00,62.3,28.8,29.77,ENE,63,2.0,7.0,28,0.00,,,0.00,WeatherTracker,2013-05-21 14:31:00,
2013-05-21 07:37:00,63.0,27.6,29.77,East,79,4.0,7.0,26,0.00,,,0.00,WeatherTracker,2013-05-21 14:37:00,
2013-05-21 07:42:00,63.5,30.7,29.77,ENE,63,10.0,10.0,29,0.00,,,0.00,WeatherTracker,2013-05-21 14:42:00,
2013-05-21 07:47:00,63.5,30.7,29.77,ENE,68,4.0,12.0,29,0.00,,,0.00,WeatherTracker,2013-05-21 14:47:00,
2013-05-21 07:52:00,63.9,33.5,29.76,NE,46,3.0,12.0,32,0.00,,,0.00,WeatherTracker,2013-05-21 14:52:00,
2013-05-21 07:57:00,64.3,30.5,29.76,NNE,23,2.0,9.0,28,0.00,,,0.00,WeatherTracker,2013-05-21 14:57:00,
2013-05-21 08:02:00,64.7,30.8,29.76,NNE,13,7.0,7.0,28,0.00,,,0.00,WeatherTracker,2013-05-21 15:02:00,
2013-05-21 08:07:00,65.6,24.6,29.76,WNW,282,15.0,22.0,21,0.00,,,0.00,WeatherTracker,2013-05-21 15:07:00,
2013-05-21 08:12:00,66.4,20.3,29.75,West,268,13.0,22.0,17,0.00,,,0.00,WeatherTracker,2013-05-21 15:12:00,
2013-05-21 08:17:00,66.3,20.2,29.75,ENE,63,4.0,20.0,17,0.00,,,0.00,WeatherTracker,2013-05-21 15:17:00,
2013-05-21 08:22:00,66.7,19.1,29.74,North,360,19.0,20.0,16,0.00,,,0.00,WeatherTracker,2013-05-21 15:22:00,
2013-05-21 08:27:00,67.1,17.9,29.74,West,275,15.0,40.0,15,0.00,,,0.00,WeatherTracker,2013-05-21 15:27:00,
2013-05-21 08:32:00,67.4,21.1,29.74,North,360,16.0,43.0,17,0.00,,,0.00,WeatherTracker,2013-05-21 15:32:00,
2013-05-21 08:37:00,67.4,19.7,29.74,West,261,5.0,43.0,16,0.00,,,0.00,WeatherTracker,2013-05-21 15:37:00,
2013-05-21 08:42:00,67.4,16.6,29.74,West,279,11.0,27.0,14,0.00,,,0.00,WeatherTracker,2013-05-21 15:42:00,
2013-05-21 08:47:00,67.1,22.2,29.74,SSW,207,5.0,27.0,18,0.00,,,0.00,WeatherTracker,2013-05-21 15:47:00,
2013-05-21 08:52:00,66.5,21.7,29.74,West,279,6.0,20.0,18,0.00,,,0.00,WeatherTracker,2013-05-21 15:52:00,
2013-05-21 08:57:00,66.6,19.0,29.74,WNW,303,2.0,20.0,16,0.00,,,0.00,WeatherTracker,2013-05-21 15:57:00,
2013-05-21 09:02:00,67.5,23.8,29.75,SSW,211,11.0,31.0,19,0.00,,,0.00,WeatherTracker,2013-05-21 16:02:00,
2013-05-21 09:08:00,67.7,22.7,29.74,North,360,11.0,31.0,18,0.00,,,0.00,WeatherTracker,2013-05-21 16:08:00,
2013-05-21 09:13:00,68.0,21.6,29.74,West,278,10.0,24.0,17,0.00,,,0.00,WeatherTracker,2013-05-21 16:13:00,
2013-05-21 09:18:00,68.1,27.8,29.73,SSW,207,27.0,27.0,22,0.00,,,0.00,WeatherTracker,2013-05-21 16:18:00,
2013-05-21 09:23:00,68.3,28.0,29.73,SSW,209,30.0,56.0,22,0.00,,,0.00,WeatherTracker,2013-05-21 16:23:00,
2013-05-21 09:28:00,68.3,29.1,29.73,South,184,11.0,56.0,23,0.00,,,0.00,WeatherTracker,2013-05-21 16:28:00,
2013-05-21 09:33:00,68.2,27.9,29.72,SSW,206,14.0,34.0,22,0.00,,,0.00,WeatherTracker,2013-05-21 16:33:00,
2013-05-21 09:38:00,68.3,29.1,29.72,SW,222,15.0,34.0,23,0.00,,,0.00,WeatherTracker,2013-05-21 16:38:00,
2013-05-21 09:43:00,68.5,30.3,29.73,SW,214,20.0,37.0,24,0.00,,,0.00,WeatherTracker,2013-05-21 16:43:00,
2013-05-21 09:48:00,68.7,27.2,29.72,North,360,16.0,37.0,21,0.00,,,0.00,WeatherTracker,2013-05-21 16:48:00,
2013-05-21 09:53:00,68.6,27.1,29.72,West,269,9.0,25.0,21,0.00,,,0.00,WeatherTracker,2013-05-21 16:53:00,
2013-05-21 09:58:00,68.7,29.4,29.72,SE,136,15.0,25.0,23,0.00,,,0.00,WeatherTracker,2013-05-21 16:58:00,
2013-05-21 10:03:00,68.8,27.3,29.71,South,174,10.0,22.0,21,0.00,,,0.00,WeatherTracker,2013-05-21 17:03:00,
2013-05-21 10:08:00,68.6,31.4,29.71,SSW,198,15.0,22.0,25,0.00,,,0.00,WeatherTracker,2013-05-21 17:08:00,
2013-05-21 10:13:00,68.4,30.2,29.71,North,360,24.0,27.0,24,0.00,,,0.00,WeatherTracker,2013-05-21 17:13:00,
2013-05-21 10:18:00,68.3,32.1,29.72,SW,232,12.0,33.0,26,0.00,,,0.00,WeatherTracker,2013-05-21 17:18:00,
2013-05-21 10:23:00,68.7,28.3,29.71,North,360,3.0,33.0,22,0.00,,,0.00,WeatherTracker,2013-05-21 17:23:00,
2013-05-21 10:28:00,68.8,30.5,29.70,SSW,192,25.0,25.0,24,0.00,,,0.00,WeatherTracker,2013-05-21 17:28:00,
2013-05-21 10:33:00,68.7,30.4,29.70,SSW,201,11.0,28.0,24,0.00,,,0.00,WeatherTracker,2013-05-21 17:33:00,
2013-05-21 10:38:00,69.0,30.7,29.70,South,189,4.0,30.0,24,0.00,,,0.00,WeatherTracker,2013-05-21 17:38:00,
2013-05-21 10:43:00,69.2,30.9,29.71,North,360,14.0,30.0,24,0.00,,,0.00,WeatherTracker,2013-05-21 17:43:00,
2013-05-21 10:48:00,69.2,32.9,29.70,North,360,19.0,30.0,26,0.00,,,0.00,WeatherTracker,2013-05-21 17:48:00,
2013-05-21 10:53:00,68.8,31.5,29.70,SE,144,18.0,30.0,25,0.00,,,0.00,WeatherTracker,2013-05-21 17:53:00,
2013-05-21 10:58:00,68.8,30.5,29.70,SSW,204,28.0,28.0,24,0.00,,,0.00,WeatherTracker,2013-05-21 17:58:00,
2013-05-21 11:03:00,68.8,31.5,29.69,West,262,10.0,37.0,25,0.00,,,0.00,WeatherTracker,2013-05-21 18:03:00,
2013-05-21 11:09:00,69.6,35.0,29.69,West,265,19.0,37.0,28,0.00,,,0.00,WeatherTracker,2013-05-21 18:09:00,
2013-05-21 11:14:00,69.1,34.6,29.69,SW,232,12.0,35.0,28,0.00,,,0.00,WeatherTracker,2013-05-21 18:14:00,
2013-05-21 11:19:00,68.9,33.5,29.69,NNE,22,7.0,35.0,27,0.00,,,0.00,WeatherTracker,2013-05-21 18:19:00,
2013-05-21 11:24:00,68.3,33.9,29.69,SSW,213,24.0,29.0,28,0.00,,,0.00,WeatherTracker,2013-05-21 18:24:00,
2013-05-21 11:29:00,68.8,33.5,29.68,SSW,207,10.0,33.0,27,0.00,,,0.00,WeatherTracker,2013-05-21 18:29:00,
2013-05-21 11:34:00,68.9,33.5,29.70,West,277,15.0,33.0,27,0.00,,,0.00,WeatherTracker,2013-05-21 18:34:00,
2013-05-21 11:39:00,68.8,32.5,29.68,SW,228,10.0,33.0,26,0.00,,,0.00,WeatherTracker,2013-05-21 18:39:00,
2013-05-21 11:44:00,69.0,37.1,29.68,SSW,208,9.0,33.0,31,0.00,,,0.00,WeatherTracker,2013-05-21 18:44:00,
2013-05-21 11:49:00,69.3,35.7,29.68,West,274,10.0,29.0,29,0.00,,,0.00,WeatherTracker,2013-05-21 18:49:00,
2013-05-21 11:54:00,69.0,31.7,29.68,WSW,256,13.0,29.0,25,0.00,,,0.00,WeatherTracker,2013-05-21 18:54:00,
2013-05-21 11:59:00,68.6,35.9,29.69,South,184,4.0,26.0,30,0.00,,,0.00,WeatherTracker,2013-05-21 18:59:00,
2013-05-21 12:04:00,69.1,32.8,29.68,WSW,256,16.0,26.0,26,0.00,,,0.00,WeatherTracker,2013-05-21 19:04:00,
2013-05-21 12:09:00,69.2,34.7,29.68,South,174,11.0,26.0,28,0.00,,,0.00,WeatherTracker,2013-05-21 19:09:00,
2013-05-21 12:14:00,69.0,33.6,29.67,South,182,15.0,26.0,27,0.00,,,0.00,WeatherTracker,2013-05-21 19:14:00,
2013-05-21 12:19:00,69.4,34.9,29.68,SE,129,10.0,23.0,28,0.00,,,0.00,WeatherTracker,2013-05-21 19:19:00,
2013-05-21 12:24:00,69.5,39.1,29.68,SSE,156,10.0,23.0,33,0.00,,,0.00,WeatherTracker,2013-05-21 19:24:00,
2013-05-21 12:29:00,70.2,36.4,29.67,ESE,117,10.0,33.0,29,0.00,,,0.00,WeatherTracker,2013-05-21 19:29:00,
2013-05-21 12:34:00,70.0,34.5,29.66,SE,128,11.0,33.0,27,0.00,,,0.00,WeatherTracker,2013-05-21 19:34:00,
2013-05-21 12:39:00,69.9,37.0,29.67,SE,135,14.0,27.0,30,0.00,,,0.00,WeatherTracker,2013-05-21 19:39:00,
2013-05-21 12:44:00,69.4,38.3,29.67,SE,129,33.0,33.0,32,0.00,,,0.00,WeatherTracker,2013-05-21 19:44:00,
2013-05-21 12:49:00,69.3,35.7,29.66,ESE,107,21.0,31.0,29,0.00,,,0.00,WeatherTracker,2013-05-21 19:49:00,
2013-05-21 12:55:00,70.1,38.1,29.66,ESE,121,18.0,33.0,31,0.00,,,0.00,WeatherTracker,2013-05-21 19:55:00,
2013-05-21 13:00:00,69.9,34.4,29.66,East,100,6.0,32.0,27,0.00,,,0.00,WeatherTracker,2013-05-21 20:00:00,
2013-05-21 13:05:00,69.9,36.2,29.65,SE,138,14.0,32.0,29,0.00,,,0.00,WeatherTracker,2013-05-21 20:05:00,
2013-05-21 13:10:00,70.0,38.0,29.65,East,97,25.0,30.0,31,0.00,,,0.00,WeatherTracker,2013-05-21 20:10:00,
2013-05-21 13:15:00,70.0,35.4,29.65,ESE,113,13.0,29.0,28,0.00,,,0.00,WeatherTracker,2013-05-21 20:15:00,
2013-05-21 13:20:00,70.3,37.4,29.65,SSE,150,15.0,28.0,30,0.00,,,0.00,WeatherTracker,2013-05-21 20:20:00,
2013-05-21 13:25:00,70.3,35.6,29.65,SSW,201,18.0,29.0,28,0.00,,,0.00,WeatherTracker,2013-05-21 20:25:00,
2013-05-21 13:30:00,70.2,38.9,29.65,SE,145,6.0,29.0,32,0.00,,,0.00,WeatherTracker,2013-05-21 20:30:00,
2013-05-21 13:35:00,70.1,37.2,29.65,SE,133,14.0,34.0,30,0.00,,,0.00,WeatherTracker,2013-05-21 20:35:00,
2013-05-21 13:40:00,69.9,39.5,29.64,ESE,114,13.0,34.0,33,0.00,,,0.00,WeatherTracker,2013-05-21 20:40:00,
2013-05-21 13:45:00,69.9,35.3,29.65,ESE,114,13.0,26.0,28,0.00,,,0.00,WeatherTracker,2013-05-21 20:45:00,
2013-05-21 13:50:00,69.8,37.0,29.65,SSE,150,19.0,26.0,30,0.00,,,0.00,WeatherTracker,2013-05-21 20:50:00,
2013-05-21 13:55:00,70.1,38.1,29.64,SE,144,10.0,28.0,31,0.00,,,0.00,WeatherTracker,2013-05-21 20:55:00,
2013-05-21 14:00:00,69.9,37.0,29.63,ESE,115,15.0,28.0,30,0.00,,,0.00,WeatherTracker,2013-05-21 21:00:00,
2013-05-21 14:05:00,69.4,37.4,29.64,South,178,16.0,36.0,31,0.00,,,0.00,WeatherTracker,2013-05-21 21:05:00,
2013-05-21 14:10:00,69.2,35.6,29.64,South,175,10.0,36.0,29,0.00,,,0.00,WeatherTracker,2013-05-21 21:10:00,
2013-05-21 14:15:00,69.4,37.4,29.63,SSW,196,24.0,36.0,31,0.00,,,0.00,WeatherTracker,2013-05-21 21:15:00,
2013-05-21 14:21:00,69.0,34.5,29.64,South,190,11.0,36.0,28,0.00,,,0.00,WeatherTracker,2013-05-21 21:21:00,
2013-05-21 14:26:00,69.2,36.4,29.64,South,189,17.0,33.0,30,0.00,,,0.00,WeatherTracker,2013-05-21 21:26:00,
2013-05-21 14:31:00,69.2,37.3,29.63,SE,146,16.0,33.0,31,0.00,,,0.00,WeatherTracker,2013-05-21 21:31:00,
2013-05-21 14:36:00,69.4,35.8,29.63,South,169,11.0,31.0,29,0.00,,,0.00,WeatherTracker,2013-05-21 21:36:00,
2013-05-21 14:41:00,69.4,38.3,29.63,SE,133,7.0,34.0,32,0.00,,,0.00,WeatherTracker,2013-05-21 21:41:00,
2013-05-21 14:46:00,70.0,37.1,29.64,SW,221,23.0,34.0,30,0.00,,,0.00,WeatherTracker,2013-05-21 21:46:00,
2013-05-21 14:51:00,69.8,37.0,29.63,South,176,13.0,24.0,30,0.00,,,0.00,WeatherTracker,2013-05-21 21:51:00,
2013-05-21 14:56:00,69.4,36.6,29.63,SE,130,6.0,32.0,30,0.00,,,0.00,WeatherTracker,2013-05-21 21:56:00,
2013-05-21 15:01:00,69.9,39.5,29.63,South,174,15.0,32.0,33,0.00,,,0.00,WeatherTracker,2013-05-21 22:01:00,
2013-05-21 15:06:00,69.5,35.8,29.63,South,175,29.0,29.0,29,0.00,,,0.00,WeatherTracker,2013-05-21 22:06:00,
2013-05-21 15:11:00,68.8,36.9,29.63,SSE,157,10.0,41.0,31,0.00,,,0.00,WeatherTracker,2013-05-21 22:11:00,
2013-05-21 15:16:00,68.6,35.9,29.63,SSE,150,14.0,41.0,30,0.00,,,0.00,WeatherTracker,2013-05-21 22:16:00,
2013-05-21 15:21:00,68.8,36.9,29.63,South,180,17.0,28.0,31,0.00,,,0.00,WeatherTracker,2013-05-21 22:21:00,
2013-05-21 15:26:00,68.0,36.2,29.63,SE,140,23.0,30.0,31,0.00,,,0.00,WeatherTracker,2013-05-21 22:26:00,
2013-05-21 15:31:00,68.2,37.2,29.62,SSE,149,43.0,43.0,32,0.00,,,0.00,WeatherTracker,2013-05-21 22:31:00,
2013-05-21 15:36:00,67.7,36.0,29.62,SE,128,23.0,43.0,31,0.00,,,0.00,WeatherTracker,2013-05-21 22:36:00,
2013-05-21 15:41:00,67.9,36.9,29.62,South,190,33.0,43.0,32,0.00,,,0.00,WeatherTracker,2013-05-21 22:41:00,
2013-05-21 15:46:00,67.8,37.6,29.62,SE,133,16.0,39.0,33,0.00,,,0.00,WeatherTracker,2013-05-21 22:46:00,
2013-05-21 15:51:00,67.5,37.4,29.61,SE,133,12.0,33.0,33,0.00,,,0.00,WeatherTracker,2013-05-21 22:51:00,
2013-05-21 15:56:00,67.3,33.9,29.62,SSE,149,24.0,33.0,29,0.00,,,0.00,WeatherTracker,2013-05-21 22:56:00,
2013-05-21 16:02:00,67.0,34.5,29.61,ESE,110,26.0,38.0,30,0.00,,,0.00,WeatherTracker,2013-05-21 23:02:00,
2013-05-21 16:07:00,67.1,34.6,29.61,SSW,208,19.0,38.0,30,0.00,,,0.00,WeatherTracker,2013-05-21 23:07:00,
2013-05-21 16:12:00,67.1,34.6,29.61,East,96,20.0,38.0,30,0.00,,,0.00,WeatherTracker,2013-05-21 23:12:00,
2013-05-21 16:17:00,66.8,34.4,29.61,South,189,22.0,38.0,30,0.00,,,0.00,WeatherTracker,2013-05-21 23:17:00,
2013-05-21 16:22:00,67.0,35.4,29.61,South,172,18.0,37.0,31,0.00,,,0.00,WeatherTracker,2013-05-21 23:22:00,
2013-05-21 16:27:00,66.8,35.2,29.61,South,184,19.0,38.0,31,0.00,,,0.00,WeatherTracker,2013-05-21 23:27:00,
2013-05-21 16:32:00,67.0,35.4,29.60,South,172,14.0,38.0,31,0.00,,,0.00,WeatherTracker,2013-05-21 23:32:00,
2013-05-21 16:37:00,67.0,35.4,29.60,SSE,165,14.0,33.0,31,0.00,,,0.00,WeatherTracker,2013-05-21 23:37:00,
2013-05-21 16:42:00,67.5,35.0,29.60,SSW,202,17.0,33.0,30,0.00,,,0.00,WeatherTracker,2013-05-21 23:42:00,
2013-05-21 16:47:00,67.3,37.2,29.59,SE,132,23.0,28.0,33,0.00,,,0.00,WeatherTracker,2013-05-21 23:47:00,
2013-05-21 16:52:00,66.8,34.4,29.60,SW,236,23.0,30.0,30,0.00,,,0.00,WeatherTracker,2013-05-21 23:52:00,
2013-05-21 16:57:00,66.9,33.6,29.60,SSE,150,14.0,36.0,29,0.00,,,0.00,WeatherTracker,2013-05-21 23:57:00,
2013-05-21 17:02:00,66.9,34.5,29.61,SSE,159,18.0,36.0,30,0.00,,,0.00,WeatherTracker,2013-05-22 00:02:00,
2013-05-21 17:07:00,67.0,33.7,29.61,SSW,211,20.0,33.0,29,0.00,,,0.00,WeatherTracker,2013-05-22 00:07:00,
2013-05-21 17:12:00,67.0,34.5,29.60,SSW,198,7.0,30.0,30,0.00,,,0.00,WeatherTracker,2013-05-22 00:12:00,
2013-05-21 17:17:00,67.3,33.1,29.60,SW,216,6.0,25.0,28,0.00,,,0.00,WeatherTracker,2013-05-22 00:17:00,
2013-05-21 17:22:00,66.7,34.3,29.60,South,178,12.0,26.0,30,0.00,,,0.00,WeatherTracker,2013-05-22 00:22:00,
2013-05-21 17:27:00,66.8,33.5,29.61,SSE,155,9.0,27.0,29,0.00,,,0.00,WeatherTracker,2013-05-22 00:27:00,
2013-05-21 17:32:00,66.3,33.1,29.61,East,92,13.0,29.0,29,0.00,,,0.00,WeatherTracker,2013-05-22 00:32:00,
2013-05-21 17:37:00,66.1,31.1,29.61,SW,216,14.0,32.0,27,0.00,,,0.00,WeatherTracker,2013-05-22 00:37:00,
2013-05-21 17:42:00,66.1,32.0,29.62,South,175,15.0,32.0,28,0.00,,,0.00,WeatherTracker,2013-05-22 00:42:00,
2013-05-21 17:47:00,65.9,31.9,29.61,SE,132,11.0,28.0,28,0.00,,,0.00,WeatherTracker,2013-05-22 00:47:00,
2013-05-21 17:52:00,65.7,32.6,29.61,SSE,148,14.0,32.0,29,0.00,,,0.00,WeatherTracker,2013-05-22 00:52:00,
2013-05-21 17:57:00,65.8,32.7,29.61,SSE,167,11.0,32.0,29,0.00,,,0.00,WeatherTracker,2013-05-22 00:57:00,
2013-05-21 18:02:00,65.6,32.5,29.61,SSE,151,12.0,33.0,29,0.00,,,0.00,WeatherTracker,2013-05-22 01:02:00,
2013-05-21 18:08:00,65.7,31.7,29.61,ESE,103,16.0,33.0,28,0.00,,,0.00,WeatherTracker,2013-05-22 01:08:00,
2013-05-21 18:13:00,65.2,31.3,29.61,South,175,13.0,35.0,28,0.00,,,0.00,WeatherTracker,2013-05-22 01:13:00,
2013-05-21 18:18:00,64.9,31.0,29.61,SE,125,17.0,35.0,28,0.00,,,0.00,WeatherTracker,2013-05-22 01:18:00,
2013-05-21 18:23:00,64.8,30.9,29.61,South,190,20.0,33.0,28,0.00,,,0.00,WeatherTracker,2013-05-22 01:23:00,
2013-05-21 18:28:00,65.0,31.1,29.61,SW,233,6.0,30.0,28,0.00,,,0.00,WeatherTracker,2013-05-22 01:28:00,
2013-05-21 18:33:00,64.7,30.8,29.60,SE,140,8.0,25.0,28,0.00,,,0.00,WeatherTracker,2013-05-22 01:33:00,
2013-05-21 18:38:00,64.5,28.9,29.59,South,184,11.0,29.0,26,0.00,,,0.00,WeatherTracker,2013-05-22 01:38:00,
2013-05-21 18:43:00,64.4,28.8,29.60,SSW,196,16.0,29.0,26,0.00,,,0.00,WeatherTracker,2013-05-22 01:43:00,
2013-05-21 18:48:00,64.3,26.7,29.61,WSW,241,11.0,24.0,24,0.00,,,0.00,WeatherTracker,2013-05-22 01:48:00,
2013-05-21 18:53:00,64.2,28.6,29.61,South,191,6.0,28.0,26,0.00,,,0.00,WeatherTracker,2013-05-22 01:53:00,
2013-05-21 18:58:00,63.7,27.2,29.61,SE,146,3.0,28.0,25,0.00,,,0.00,WeatherTracker,2013-05-22 01:58:00,
2013-05-21 19:03:00,63.7,29.1,29.61,SSE,157,6.0,28.0,27,0.00,,,0.00,WeatherTracker,2013-05-22 02:03:00,
2013-05-21 19:08:00,63.5,29.8,29.61,East,84,6.0,24.0,28,0.00,,,0.00,WeatherTracker,2013-05-22 02:08:00,
2013-05-21 19:13:00,63.4,30.6,29.62,West,263,4.0,24.0,29,0.00,,,0.00,WeatherTracker,2013-05-22 02:13:00,
2013-05-21 19:18:00,62.7,30.0,29.63,ESE,111,0.0,23.0,29,0.00,,,0.00,WeatherTracker,2013-05-22 02:18:00,
2013-05-21 19:23:00,62.5,29.0,29.63,ESE,105,6.0,18.0,28,0.00,,,0.00,WeatherTracker,2013-05-22 02:23:00,
2013-05-21 19:28:00,62.1,26.8,29.63,West,280,9.0,18.0,26,0.00,,,0.00,WeatherTracker,2013-05-22 02:28:00,
2013-05-21 19:33:00,62.0,28.5,29.64,WNW,287,7.0,16.0,28,0.00,,,0.00,WeatherTracker,2013-05-22 02:33:00,
2013-05-21 19:38:00,62.0,27.6,29.63,West,280,11.0,21.0,27,0.00,,,0.00,WeatherTracker,2013-05-22 02:38:00,
2013-05-21 19:43:00,62.2,24.0,29.63,West,261,32.0,32.0,23,0.00,,,0.00,WeatherTracker,2013-05-22 02:43:00,
2013-05-21 19:48:00,62.5,19.7,29.63,WSW,244,29.0,38.0,19,0.00,,,0.00,WeatherTracker,2013-05-22 02:48:00,
2013-05-21 19:54:00,62.4,22.0,29.63,SW,232,22.0,38.0,21,0.00,,,0.00,WeatherTracker,2013-05-22 02:54:00,
2013-05-21 19:59:00,62.2,20.6,29.63,SW,225,26.0,37.0,20,0.00,,,0.00,WeatherTracker,2013-05-22 02:59:00,
2013-05-21 20:04:00,62.3,20.7,29.63,SW,221,19.0,36.0,20,0.00,,,0.00,WeatherTracker,2013-05-22 03:04:00,
2013-05-21 20:09:00,62.6,19.8,29.63,SSW,205,8.0,37.0,19,0.00,,,0.00,WeatherTracker,2013-05-22 03:09:00,
2013-05-21 20:14:00,61.7,24.5,29.62,South,190,18.0,37.0,24,0.00,,,0.00,WeatherTracker,2013-05-22 03:14:00,
2013-05-21 20:19:00,61.2,25.1,29.63,East,82,5.0,33.0,25,0.00,,,0.00,WeatherTracker,2013-05-22 03:19:00,
2013-05-21 20:24:00,61.2,24.1,29.64,South,188,17.0,33.0,24,0.00,,,0.00,WeatherTracker,2013-05-22 03:24:00,
2013-05-21 20:29:00,61.3,24.2,29.64,ENE,71,5.0,25.0,24,0.00,,,0.00,WeatherTracker,2013-05-22 03:29:00,
2013-05-21 20:34:00,60.8,23.8,29.63,ENE,59,11.0,25.0,24,0.00,,,0.00,WeatherTracker,2013-05-22 03:34:00,
2013-05-21 20:39:00,60.7,22.7,29.63,South,181,24.0,24.0,23,0.00,,,0.00,WeatherTracker,2013-05-22 03:39:00,
2013-05-21 20:44:00,60.5,22.5,29.64,SSW,199,4.0,27.0,23,0.00,,,0.00,WeatherTracker,2013-05-22 03:44:00,
2013-05-21 20:49:00,60.4,21.4,29.63,SSW,209,24.0,27.0,22,0.00,,,0.00,WeatherTracker,2013-05-22 03:49:00,
2013-05-21 20:54:00,60.4,25.4,29.64,SSE,163,10.0,30.0,26,0.00,,,0.00,WeatherTracker,2013-05-22 03:54:00,
2013-05-21 20:59:00,60.8,22.8,29.64,NE,50,4.0,30.0,23,0.00,,,0.00,WeatherTracker,2013-05-22 03:59:00,
2013-05-21 21:01:00,60.7,26.5,29.64,East,98,4.0,30.0,27,0.00,,,0.00,WeatherTracker,2013-05-22 04:01:00,
2013-05-21 21:02:00,60.5,23.5,29.64,SE,130,2.0,30.0,24,0.00,,,0.00,WeatherTracker,2013-05-22 04:02:00,
2013-05-21 21:07:00,59.0,27.6,29.64,North,355,14.0,14.0,30,0.00,,,0.00,WeatherTracker,2013-05-22 04:07:00,
2013-05-21 21:12:00,58.2,28.5,29.63,NNE,31,7.0,20.0,32,0.00,,,0.00,WeatherTracker,2013-05-22 04:12:00,
2013-05-21 21:17:00,58.0,28.3,29.63,NE,48,13.0,20.0,32,0.00,,,0.00,WeatherTracker,2013-05-22 04:17:00,
2013-05-21 21:22:00,58.2,27.7,29.63,NE,49,5.0,20.0,31,0.00,,,0.00,WeatherTracker,2013-05-22 04:22:00,
2013-05-21 21:27:00,58.3,29.3,29.63,NNE,17,7.0,19.0,33,0.00,,,0.00,WeatherTracker,2013-05-22 04:27:00,
2013-05-21 21:32:00,59.0,29.2,29.63,NNE,18,15.0,17.0,32,0.00,,,0.00,WeatherTracker,2013-05-22 04:32:00,
2013-05-21 21:37:00,58.1,26.0,29.64,ENE,67,11.0,24.0,29,0.00,,,0.00,WeatherTracker,2013-05-22 04:37:00,
2013-05-21 21:42:00,57.4,30.7,29.63,NNW,342,21.0,24.0,36,0.00,,,0.00,WeatherTracker,2013-05-22 04:42:00,
2013-05-21 21:47:00,59.0,21.3,29.64,NNW,335,30.0,30.0,23,0.00,,,0.00,WeatherTracker,2013-05-22 04:47:00,
2013-05-21 21:52:00,59.6,23.7,29.64,NE,40,18.0,30.0,25,0.00,,,0.00,WeatherTracker,2013-05-22 04:52:00,
2013-05-21 21:57:00,58.0,24.2,29.64,ENE,73,18.0,30.0,27,0.00,,,0.00,WeatherTracker,2013-05-22 04:57:00,
2013-05-21 22:02:00,59.0,25.9,29.63,NNW,340,14.0,23.0,28,0.00,,,0.00,WeatherTracker,2013-05-22 05:02:00,
2013-05-21 22:07:00,58.2,24.4,29.64,North,360,12.0,24.0,27,0.00,,,0.00,WeatherTracker,2013-05-22 05:07:00,
2013-05-21 22:12:00,58.1,21.5,29.64,North,360,15.0,24.0,24,0.00,,,0.00,WeatherTracker,2013-05-22 05:12:00,
2013-05-21 22:17:00,58.3,27.0,29.64,North,360,12.0,24.0,30,0.00,,,0.00,WeatherTracker,2013-05-22 05:17:00,
2013-05-21 22:22:00,57.7,28.8,29.64,NE,34,11.0,24.0,33,0.00,,,0.00,WeatherTracker,2013-05-22 05:22:00,
2013-05-21 22:27:00,57.3,27.7,29.64,North,360,9.0,24.0,32,0.00,,,0.00,WeatherTracker,2013-05-22 05:27:00,
2013-05-21 22:32:00,58.1,24.3,29.64,North,360,10.0,16.0,27,0.00,,,0.00,WeatherTracker,2013-05-22 05:32:00,
2013-05-21 22:37:00,57.2,27.6,29.66,North,360,10.0,26.0,32,0.00,,,0.00,WeatherTracker,2013-05-22 05:37:00,
2013-05-21 22:42:00,57.2,28.4,29.64,NNE,32,9.0,26.0,33,0.00,,,0.00,WeatherTracker,2013-05-22 05:42:00,
2013-05-21 22:47:00,56.8,28.0,29.64,North,360,3.0,17.0,33,0.00,,,0.00,WeatherTracker,2013-05-22 05:47:00,
2013-05-21 22:53:00,57.0,27.4,29.64,NW,315,25.0,25.0,32,0.00,,,0.00,WeatherTracker,2013-05-22 05:53:00,
2013-05-21 22:58:00,57.7,28.1,29.63,North,360,8.0,27.0,32,0.00,,,0.00,WeatherTracker,2013-05-22 05:58:00,
2013-05-21 23:03:00,57.3,26.9,29.63,North,355,11.0,27.0,31,0.00,,,0.00,WeatherTracker,2013-05-22 06:03:00,
2013-05-21 23:08:00,57.1,27.5,29.63,NE,55,21.0,23.0,32,0.00,,,0.00,WeatherTracker,2013-05-22 06:08:00,
2013-05-21 23:13:00,57.6,25.6,29.63,NE,43,24.0,25.0,29,0.00,,,0.00,WeatherTracker,2013-05-22 06:13:00,
2013-05-21 23:18:00,57.9,17.1,29.61,East,84,14.0,30.0,20,0.00,,,0.00,WeatherTracker,2013-05-22 06:18:00,
2013-05-21 23:23:00,59.1,15.7,29.63,ESE,103,6.0,30.0,18,0.00,,,0.00,WeatherTracker,2013-05-22 06:23:00,
2013-05-21 23:28:00,58.7,23.0,29.64,NE,42,17.0,23.0,25,0.00,,,0.00,WeatherTracker,2013-05-22 06:28:00,
2013-05-21 23:33:00,57.6,24.7,29.63,North,360,7.0,19.0,28,0.00,,,0.00,WeatherTracker,2013-05-22 06:33:00,
2013-05-21 23:38:00,57.1,18.6,29.64,North,360,15.0,19.0,22,0.00,,,0.00,WeatherTracker,2013-05-22 06:38:00,
2013-05-21 23:43:00,58.6,15.2,29.63,North,360,16.0,22.0,18,0.00,,,0.00,WeatherTracker,2013-05-22 06:43:00,
2013-05-21 23:48:00,58.1,19.5,29.63,East,94,9.0,22.0,22,0.00,,,0.00,WeatherTracker,2013-05-22 06:48:00,
2013-05-21 23:53:00,57.8,20.3,29.63,NE,54,3.0,21.0,23,0.00,,,0.00,WeatherTracker,2013-05-22 06:53:00,
2013-05-21 23:58:00,56.9,20.5,29.64,NE,48,12.0,20.0,24,0.00,,,0.00,WeatherTracker,2013-05-22 06:58:00,